This demonstration page uses our WeatherBlox Daily Observations layout. Learn more.

Hourly Observations for August 30, 2016

Temp ( °F °C ) Dew Point ( °F °C ) Humidity (%) Winds ( mph kmh ) Pressure ( in mb ) Visibility ( mi km ) Precip ( " mm )
12:15 am 00:15 Cloudy 70 21.2 66 19.1 88 88 SSE 6 9 30.15 1021 10 16.09344 0 0
12:35 am 00:35 Cloudy with Drizzle 70 21 66 18.8 87 87 SSE 6 9 30.15 1021 10 16.09344 0 0
12:55 am 00:55 Cloudy with Drizzle 69 20.7 66 19 90 90 SSE 5 7 30.15 1021 10 16.09344 0 0
1:15 am 01:15 Cloudy with Rain 69 20.5 66 18.8 90 90 SSE 5 7 30.15 1021 10 16.09344 0 0
1:35 am 01:35 Cloudy with Light Drizzle 69 20.3 66 18.8 91 91 S 3 6 30.15 1021 10 16.09344 0 0
1:55 am 01:55 Mostly Cloudy with Light Drizzle 68 20 66 18.8 93 93 SSE 3 6 30.15 1021 7 11.265408 0 0
2:15 am 02:15 Partly Cloudy 68 20.2 66 19 93 93 SSE 3 6 30.12 1020 10 16.09344 0 0
2:35 am 02:35 Partly Cloudy 68 20 66 18.9 93 93 Calm 30.12 1020 7 11.265408 0 0
2:55 am 02:55 Partly Cloudy 68 20.1 66 18.9 93 93 Calm 30.12 1020 10 16.09344 0 0
3:15 am 03:15 Partly Cloudy 68 19.8 66 18.7 93 93 Calm 30.12 1020 7 11.265408 0 0
3:35 am 03:35 Mostly Cloudy 67 19.6 65 18.6 94 94 Calm 30.12 1020 7 11.265408 0 0
3:55 am 03:55 Cloudy 67 19.5 65 18.5 94 94 NW 3 6 30.12 1020 7 11.265408 0 0
4:15 am 04:15 Mostly Cloudy with Mist and Fog 67 19.5 65 18.5 94 94 Calm 30.12 1020 5 8.04672 0 0
4:35 am 04:35 Partly Cloudy with Mist and Fog 67 19.5 65 18.5 94 94 Calm 30.12 1020 4 6.437376 0 0
4:55 am 04:55 Partly Cloudy with Mist and Fog 67 19.3 65 18.5 95 95 Calm 30.12 1020 4 6.437376 0 0
5:15 am 05:15 Mostly Cloudy with Mist and Fog 67 19.3 65 18.5 95 95 Calm 30.12 1020 4 6.437376 0 0
5:35 am 05:35 Cloudy with Mist and Fog 67 19.2 65 18.4 95 95 Calm 30.12 1020 5 8.04672 0 0
5:55 am 05:55 Partly Cloudy with Mist and Fog 67 19.2 65 18.4 95 95 SE 6 9 30.12 1020 5 8.04672 0 0
6:15 am 06:15 Partly Cloudy with Mist and Fog 67 19.6 65 18.6 94 94 Calm 30.12 1020 5 8.04672 0 0
6:35 am 06:35 Partly Cloudy with Mist and Fog 67 19.5 65 18.5 94 94 Calm 30.12 1020 5 8.04672 0 0
6:55 am 06:55 Mostly Cloudy with Mist and Fog 67 19.3 65 18.5 95 95 Calm 30.15 1021 4 6.437376 0 0
7:15 am 07:15 Cloudy with Mist and Fog 67 19.3 65 18.5 95 95 Calm 30.15 1021 4 6.437376 0 0
7:35 am 07:35 Mostly Cloudy with Mist and Fog 67 19.3 65 18.5 95 95 Calm 30.15 1021 2.5 4.02336 0 0
7:55 am 07:55 Partly Cloudy with Mist and Fog 67 19.3 65 18.5 95 95 Calm 30.15 1021 2.5 4.02336 0 0
8:15 am 08:15 Mostly Cloudy with Mist and Fog 67 19.5 65 18.6 95 95 Calm 30.15 1021 3 4.828032 0.01 0.254
8:35 am 08:35 Cloudy with Mist and Fog 68 20 66 19 94 94 SE 3 6 30.15 1021 4 6.437376 0.01 0.254
8:55 am 08:55 Cloudy 68 20.2 65 18.6 91 91 Calm 30.15 1021 7 11.265408 0.01 0.254
9:15 am 09:15 Cloudy 69 20.3 66 18.7 91 91 S 6 9 30.15 1021 7 11.265408 0 0
9:35 am 09:35 Cloudy 69 20.3 65 18.6 90 90 Calm 30.15 1021 7 11.265408 0 0
9:55 am 09:55 Cloudy 69 20.6 66 18.7 89 89 Calm 30.18 1022 7 11.265408 0 0
10:15 am 10:15 Cloudy 70 21 65 18.6 86 86 Calm 30.18 1022 10 16.09344 0 0
10:35 am 10:35 Cloudy 70 21.2 65 18.5 85 85 Calm 30.18 1022 10 16.09344 0 0
10:55 am 10:55 Cloudy 70 21.2 66 18.7 86 86 Calm 30.18 1022 10 16.09344 0 0
11:15 am 11:15 Cloudy with Light Rain 70 21 66 19 88 88 W 3 6 30.18 1022 5 8.04672 0.04 1.016
11:35 am 11:35 Cloudy 71 21.5 67 19.3 87 87 Calm 30.18 1022 10 16.09344 0.04 1.016
11:55 am 11:55 Cloudy 71 21.8 67 19.2 85 85 WNW 3 6 30.18 1022 10 16.09344 0.04 1.016
12:15 pm 12:15 Mostly Cloudy 73 22.5 67 19.2 82 82 W 3 6 30.12 1020 10 16.09344 0 0
12:35 pm 12:35 Partly Cloudy 73 23 67 19.4 80 80 Calm 30.12 1020 10 16.09344 0 0
12:55 pm 12:55 Mostly Cloudy 74 23.2 66 19.1 78 78 Calm 30.12 1020 10 16.09344 0 0
1:15 pm 13:15 Mostly Cloudy 74 23.5 66 18.7 75 75 WNW 3 6 30.12 1020 10 16.09344 0 0
1:35 pm 13:35 Mostly Cloudy with Heavy Rain 74 23.1 66 18.7 76 76 E 16 26 30.12 1020 7 11.265408 0.04 1.016
1:55 pm 13:55 Cloudy with Rain 69 20.8 65 18.6 87 87 S 10 17 30.15 1021 3 4.828032 0.28 7.112
2:15 pm 14:15 Cloudy with Rain 69 20.3 65 18.6 90 90 SW 7 11 30.15 1021 4 6.437376 0.08 2.032
2:35 pm 14:35 Cloudy with Rain 70 21.3 65 18.5 84 84 Calm 30.15 1021 7 11.265408 0.11 2.794
2:55 pm 14:55 Cloudy with Light Rain 72 22 65 18.6 81 81 Calm 30.15 1021 10 16.09344 0.11 2.794
3:15 pm 15:15 Mostly Cloudy 73 22.6 65 18.5 78 78 Calm 30.09 1019 10 16.09344 0 0
3:35 pm 15:35 Mostly Cloudy 73 22.9 65 18.3 75 75 Calm 30.09 1019 10 16.09344 0 0
3:55 pm 15:55 Cloudy 74 23.1 65 18.4 75 75 Calm 30.09 1019 10 16.09344 0 0
4:15 pm 16:15 Mostly Cloudy 74 23.1 66 19 78 78 Calm 30.09 1019 10 16.09344 0 0
4:35 pm 16:35 Partly Cloudy 74 23.5 67 19.4 78 78 Calm 30.09 1019 10 16.09344 0 0
4:55 pm 16:55 Mostly Cloudy 74 23.5 67 19.2 77 77 Calm 30.09 1019 10 16.09344 0 0
5:15 pm 17:15 Partly Cloudy 75 23.7 67 19.3 76 76 ENE 3 6 30.09 1019 10 16.09344 0 0
5:35 pm 17:35 Sunny 75 23.7 66 19.1 76 76 ENE 6 9 30.06 1018 10 16.09344 0 0
5:55 pm 17:55 Partly Cloudy 75 23.7 66 18.7 74 74 ENE 3 6 30.06 1018 10 16.09344 0 0
6:15 pm 18:15 Partly Cloudy 75 23.7 65 18.2 71 71 E 3 6 30.06 1018 10 16.09344 0 0
6:35 pm 18:35 Partly Cloudy 75 23.7 65 18.2 71 71 Calm 30.06 1018 10 16.09344 0 0
6:55 pm 18:55 Partly Cloudy 74 23.6 65 18.4 73 73 Calm 30.06 1018 10 16.09344 0 0
7:15 pm 19:15 Partly Cloudy 74 23.5 65 18.4 73 73 Calm 30.06 1018 10 16.09344 0 0
7:35 pm 19:35 Partly Cloudy 74 23.1 67 19.4 80 80 Calm 30.06 1018 10 16.09344 0 0
7:55 pm 19:55 Sunny 73 22.6 68 19.8 84 84 Calm 30.06 1018 10 16.09344 0 0
8:15 pm 20:15 Clear 72 22 68 19.9 88 88 ENE 3 6 30.06 1018 10 16.09344 0 0
8:35 pm 20:35 Clear 71 21.6 67 19.5 88 88 ENE 3 6 30.12 1020 10 16.09344 0 0
8:55 pm 20:55 Clear 71 21.4 67 19.5 89 89 E 3 6 30.12 1020 10 16.09344 0 0
9:15 pm 21:15 Clear 72 22 66 19 83 83 ESE 5 7 30.09 1019 10 16.09344 0 0
9:35 pm 21:35 Clear 71 21.8 65 18.3 81 81 ESE 7 11 30.15 1021 10 16.09344 0 0
9:55 pm 21:55 Mostly Cloudy 71 21.5 64 18 81 81 ESE 7 11 30.15 1021 10 16.09344 0 0
10:15 pm 22:15 Cloudy 70 21.1 65 18.2 84 84 E 5 7 30.15 1021 10 16.09344 0 0
10:35 pm 22:35 Cloudy 70 21 65 18.3 85 85 E 5 7 30.15 1021 10 16.09344 0 0
10:55 pm 22:55 Cloudy 69 20.4 65 18.5 89 89 E 5 7 30.15 1021 10 16.09344 0 0
11:15 pm 23:15 Mostly Cloudy 68 20.2 65 18.5 90 90 E 3 6 30.15 1021 10 16.09344 0 0
11:35 pm 23:35 Mostly Cloudy 68 20.2 65 18.6 91 91 SE 3 6 30.15 1021 7 11.265408 0 0
11:55 pm 23:55 Cloudy with Light Rain 69 20.5 66 18.8 90 90 Calm 30.15 1021 7 11.265408 0 0

Powered by AerisWeather